Weather WX

World > North America > United States > Ohio

Otway, Ohio Regional Weather

Lat: 38.87N, Lon: 83.19W
Wx Zone: OHZ088
Warning FLW WEATHER ALERT - (More Info. Click Here) Warning
Feedback

Otway, OH Regional Weather

Expires:201906190600;;715337
ASUS41 KCLE 190512
RWRCLE
OHIO REGIONAL WEATHER ROUNDUP
NATIONAL WEATHER SERVICE WILMINGTON, OH
100 AM EDT WED JUN 19 2019

NOTE: "FAIR" INDICATES FEW OR NO CLOUDS BELOW 12,000 FEET WITH NO
SIGNIFICANT WEATHER AND/OR OBSTRUCTIONS TO VISIBILITY.


OHZ036-037-039>041-045>050-054>059-063>069-073>076-082>088-190600-
  CENTRAL AND SOUTHEAST OHIO
  
CITY           SKY/WX    TMP DP  RH WIND       PRES   REMARKS
COLUMBUS       MOCLDY    70  68  93 SE3       29.86F                  
OSU AIRPORT    CLOUDY    68  68 100 CALM      29.87S FOG              
BOLTON FIELD   CLOUDY    69  68  98 CALM      29.87F                  
RICKENBACK AFB LGT RAIN  68  69 100 CALM      29.86S                  
NEWARK         LGT RAIN  70  68  93 CALM      29.87S                  
MARION         MOCLDY    67  63  87 CALM      29.89S                  
LANCASTER      LGT RAIN  70  68  93 CALM      29.87F                  
ZANESVILLE     CLOUDY    70  67  90 CALM      29.87S                  
NEW PHILLY     MOCLDY    69  67  93 CALM      29.88S                  
$$
  

SKY/WX - Weather  TMP - Temperature  DP - Dew Point  RH - Relative Humidity
WIND - Wind Direction/Speed PRES - Barometric Pressure VSB - Visibility
WCI - Wind Chill Index E13G22 Wind - East Wind 13 mph/Gusts of 22 mph